Printer-friendly version

IAU Minor Planet Center

Minor Planet Center

MPEC 2009-N06 : 2009 NA

The following Minor Planet Electronic Circular may be linked-to from your own Web pages, but must not otherwise be redistributed electronically.


Read MPEC 2009-N05 Read MPEC 2009-N07


M.P.E.C. 2009-N06                                Issued 2009 July 2, 11:33 UT

     The Minor Planet Electronic Circulars contain information on unusual
         minor planets and routine data on comets.  They are published
   on behalf of Commission 20 of the International Astronomical Union by the
          Minor Planet Center, Smithsonian Astrophysical Observatory,
                          Cambridge, MA 02138, U.S.A.

             Prepared using the Tamkin Foundation Computer Network

                              MPC@CFA.HARVARD.EDU
          URL http://www.cfa.harvard.edu/iau/mpc.html  ISSN 1523-6714

                                    2009 NA

Observations:
     K09N00A* C2009 07 01.09164 22 45 41.26 +05 15 14.1          18.8 V EN006J75
     K09N00A  C2009 07 01.10491 22 45 43.07 +05 15 42.2          18.5 V EN006J75
     K09N00A  C2009 07 01.11818 22 45 44.75 +05 16 07.7          18.3 V EN006J75
     K09N00A  C2009 07 02.08463 22 47 56.30 +05 48 35.4          20.2 V EN006J75
     K09N00A  C2009 07 02.09368 22 47 57.45 +05 48 53.7          19.3 V EN006J75
     K09N00A  C2009 07 02.09423 22 47 57.56 +05 48 54.7          19.6 V EN006J75
     K09N00A  C2009 07 02.09586 22 47 57.77 +05 48 57.9          19.3 V EN006J75
     K09N00A  C2009 07 02.09801 22 47 58.17 +05 49 03.2          19.3 V EN006J75
     K09N00A  C2009 07 02.10052 22 47 58.36 +05 49 06.3          19.3 V EN006J75
     K09N00A  C2009 07 02.10267 22 47 58.70 +05 49 11.7          19.3 V EN006J75
     K09N00A  C2009 07 02.10382 22 47 58.86 +05 49 14.1          19.8 V EN006J75
     K09N00A  C2009 07 02.10483 22 47 59.01 +05 49 15.4          19.5 V EN006J75
     K09N00A  C2009 07 02.10733 22 47 59.31 +05 49 20.6          19.6 V EN006J75
     K09N00A  C2009 07 02.10948 22 47 59.62 +05 49 25.6          19.5 V EN006J75
     K09N00A  C2009 07 02.11163 22 47 59.91 +05 49 29.1          19.8 V EN006J75
     K09N00A  C2009 07 02.33289 22 48 30.18 +05 57 00.6          18.5 R EN006850
     K09N00A  C2009 07 02.34804 22 48 32.20 +05 57 31.3          18.7 R EN006850
     K09N00A  C2009 07 02.36619 22 48 34.64 +05 58 07.1          17.9 R EN006850
     K09N00A  C2009 07 02.38041 22 48 36.49 +05 58 37.2          18.5 R EN006850

Observer details:
850 Cordell-Lorenz Observatory, Sewanee.  Observers D. T. Durig, P. Kharel.
    0.30-m f/2.5 Schmidt-Cassegrain + 765x510 CCD.
J75 OAM Observatory, La Sagra.  Observers S. Sanchez, J. Nomen, R. Stoss,
    W. K. Y. Yeung, J. Rodriguez, A. Cikota, S. Cikota.  0.40-m f/10 reflector
    + CCD, 0.45-m f/2.8 reflector + CCD.

Orbital elements:
2009 NA                                                  Earth MOID = 0.2472 AU
Epoch 2009 June 18.0 TT = JDT 2455000.5                 MPC
M 337.90918              (2000.0)            P               Q
n   0.24110249     Peri.  101.55114     +0.96739744     -0.18435665
a   2.5566322      Node   269.24990     +0.10443283     +0.91502411
e   0.5435407      Incl.   10.00105     +0.23072921     +0.35880844
P   4.09           H   17.6           G   0.15
From 19 observations 2009 July 1-2.  E-assumed.

Ephemeris:
2009 NA                  a,e,i = 2.56, 0.54, 10                  q = 1.1670
Date    TT    R. A. (2000) Decl.     Delta      r     Elong.  Phase     V
2009 06 28    22 38.78   +03 34.7    0.752    1.484   113.2    39.0    19.4
2009 07 08    23 01.74   +09 17.6    0.656    1.422   114.7    40.5    19.0
2009 07 18    23 27.06   +15 50.8    0.574    1.363   115.1    42.5    18.7
2009 07 28    23 55.79   +23 07.4    0.509    1.310   114.3    45.0    18.4
2009 08 07    00 29.41   +30 46.5    0.460    1.263   112.3    48.0    18.2
2009 08 17    01 09.46   +38 11.0    0.426    1.224   109.7    51.2    18.1
2009 08 27    01 56.69   +44 31.2    0.405    1.194   107.1    54.0    18.0
2009 09 06    02 49.83   +49 01.9    0.395    1.175   105.2    55.9    18.0
2009 09 16    03 44.25   +51 21.0    0.391    1.167   104.6    56.5    17.9
2009 09 26    04 33.19   +51 37.3    0.391    1.171   105.8    55.5    17.9
2009 10 06    05 11.64   +50 21.0    0.393    1.187   108.9    52.8    17.9
2009 10 16    05 37.58   +48 05.1    0.395    1.213   114.1    48.6    17.8
2009 10 26    05 51.10   +45 11.6    0.398    1.249   121.5    42.7    17.7
2009 11 05    05 53.73   +41 51.0    0.405    1.294   131.0    35.3    17.6
2009 11 15    05 47.75   +38 08.5    0.418    1.345   142.5    26.6    17.6
2009 11 25    05 36.37   +34 11.5    0.443    1.402   155.3    17.1    17.5
2009 12 05    05 23.48   +30 16.1    0.485    1.463   168.4     7.8    17.4
2009 12 15    05 12.26   +26 43.6    0.545    1.528   174.8     3.4    17.5
2009 12 25    05 04.67   +23 49.7    0.626    1.595   164.2     9.7    18.2
2010 01 04    05 01.40   +21 39.5    0.726    1.663   153.0    15.6    18.9
2010 01 14    05 02.16   +20 09.0    0.843    1.732   142.8    20.1    19.4
2010 01 24    05 06.42   +19 10.0    0.977    1.802   133.5    23.4    19.9
2010 02 03    05 13.53   +18 33.7    1.123    1.871   124.9    25.6    20.4
2010 02 13    05 22.87   +18 12.4    1.281    1.941   117.0    27.0    20.8
2010 02 23    05 33.98   +18 00.1    1.449    2.009   109.6    27.6    21.2
2010 03 05    05 46.44   +17 52.1    1.623    2.077   102.5    27.8    21.5
2010 03 15    05 59.91   +17 45.0    1.802    2.144    95.8    27.5    21.8
2010 03 25    06 14.16   +17 36.3    1.985    2.210    89.3    26.8    22.0

Timothy B. Spahr             (C) Copyright 2009 MPC           M.P.E.C. 2009-N06

Read MPEC 2009-N05 Read MPEC 2009-N07

Valid HTML 4.01!